Weather Roundup
Issued by NWS

Home | Current Version | Previous Version | Text Only | Print | Product List | Glossary On
Versions: 1 2 3 4 5 6 7 8 9 10 11 12 13 14 15 16 17 18 19 20 21 22 23 24 25 26 27 28 29 30 31 32 33 34 35 36 37 38 39 40 41 42 43 44 45 46 47 48 49 50
000
NZUS93 KARX 251410
HRRWXR

CURRENT HOURLY OBSERVATIONS ACROSS
MUCH OF THE UPPER MISSISSIPPI VALLEY
NATIONAL WEATHER SERVICE LA CROSSE WI
900 AM CDT FRI JUL 25 2014


...SOUTHEAST MINNESOTA...


CITY           SKY/WX    TMP DP  RH WIND       PRES   REMARKS
ROCHESTER      CLOUDY    64  60  87 S13       29.88F
ROCHESTER/MAYO CLOUDY    64  60  89 SE12G17   29.88F
WINONA         CLOUDY    66  61  82 S3        29.89R
AUSTIN         CLOUDY    63  63 100 S9        29.87R
ALBERT LEA     CLOUDY    66  64  94 S12       29.83F
DODGE CENTER   CLOUDY    64  63  94 S13G21    29.88R
PRESTON        CLOUDY    62  62 100 S13G25    29.87F
OWATONNA       CLOUDY    64  63  94 SE12G17   29.85S
FARIBAULT      CLOUDY    70  61  73 SE10      29.86R
$$

...ELSEWHERE IN MINNESOTA...


CITY           SKY/WX    TMP DP  RH WIND       PRES   REMARKS
MINNEAPOLIS    CLOUDY    67  64  90 SE9       29.85F
INTNL FALLS    MOSUNNY   66  61  84 VRB5      29.79R
DULUTH         CLOUDY    66  59  78 S6        29.83R
RED WING       CLOUDY    66  63  88 SW6       29.87R
REDWOOD FALLS  MOSUNNY   71  63  75 S18       29.79R
MANKATO        CLOUDY    68  63  83 S15       29.82R
WORTHINGTON    SUNNY     68  61  77 S20G35    29.78F
FAIRMONT       PTSUNNY   66  59  77 S18       29.80S
$$

...SOUTHWEST WISCONSIN...


CITY           SKY/WX    TMP DP  RH WIND       PRES   REMARKS
LA CROSSE      CLOUDY    66  61  84 S7        29.89R
PRAIRIE DU CHI LGT RAIN  63  57  82 SE9G17    29.93F
BOSCOBEL       CLOUDY    66  57  72 S14G26    29.88F
LONE ROCK      CLOUDY    68  59  73 S10       29.94F
PLATTEVILLE    PTSUNNY   64  59  85 S15       30.00S
FORT MC COY    LGT RAIN  62  58  87 SW5       29.89R
CAMP DOUGLAS   MOSUNNY   64  59  82 SE9G18    29.88F
VIROQUA        FAIR      62  61  96 S20G29    29.88R
WIS DELLS      CLOUDY    63  54  73 S12       29.93F
$$

...ELSEWHERE IN WISCONSIN...


CITY           SKY/WX    TMP DP  RH WIND       PRES   REMARKS
MILWAUKEE      CLOUDY    64  51  62 SW10      30.02F
MADISON        CLOUDY    66  56  70 S8        29.97F
GREEN BAY      CLOUDY    66  57  72 SW10      29.98F
EAU CLAIRE     LGT RAIN  64  62  93 S9        29.89S
BLACK RVR FLS  RAIN      64  59  85 CALM      29.90R
MEDFORD        CLOUDY    62  58  88 S8        29.90F
WAUSAU         CLOUDY    63  59  87 SE9       29.91F
WIS RAPIDS     CLOUDY    65  58  78 SE10      29.91F
MARSHFIELD     CLOUDY    65  58  78 SE10      29.89F
RICE LAKE      CLOUDY    65  60  84 CALM      29.90F
$$

...NORTHEAST IOWA...


CITY           SKY/WX    TMP DP  RH WIND       PRES   REMARKS
WATERLOO       HVY RAIN  63  61  93 S14G20    29.99R FOG
DUBUQUE        PTSUNNY   62  59  90 S13       30.00S
DECORAH        CLOUDY    61  61 100 S10G18    29.92R
MASON CITY     LGT RAIN  66  65  96 S22G35    29.81F
CHARLES CITY   LGT RAIN  63  63 100 S18G30    29.87F
OELWEIN        RAIN      61  61 100 SW6G18    30.04R
$$

...ELSEWHERE IN IOWA...


CITY           SKY/WX    TMP DP  RH WIND       PRES   REMARKS
DES MOINES     CLOUDY    67  58  72 SE12      29.94R
IOWA CITY      NOT AVBL
FORT DODGE     CLOUDY    64  61  88 SE10      29.93R
MARSHALLTOWN   LGT RAIN  64  62  93 SE10      29.99R
CEDAR RAPIDS   LGT RAIN  61  58  90 S10       29.98R
$$

...NORTHERN ILLINOIS...


CITY           SKY/WX    TMP DP  RH WIND       PRES   REMARKS
CHICAGO-OHARE  CLOUDY    65  52  62 SW8       30.05F
DUPAGE         LGT RAIN  62  56  80 S8        30.04F
CHICAGO-MIDWAY CLOUDY    66  54  65 S8        30.06F
MOLINE         CLOUDY    63  58  83 S13G18    29.98F
ROCKFORD       CLOUDY    62  57  83 SE7       30.02F
STERLING       CLOUDY    61  57  88 S7        30.01F
PEORIA         LGT RAIN  63  58  83 CALM      30.10F
$$

NOTE: "FAIR" INDICATES FEW OR NO CLOUDS BELOW 12,000 FEET WITH NO
SIGNIFICANT WEATHER AND/OR OBSTRUCTIONS TO VISIBILITY. WIND
SPEEDS ARE IN MILES-PER-HOUR.



USA.gov is the U.S. government's official web portal to all federal, state and local government web resources and services.